Date String (YYYY-MM-DD hh:mm:ss) UTC,Instrument flags,Ambient pressure (hPa),Sample flow (lpm),Bypass flow (lpm),Sample temperature (°C),Ambient temperature (°C),ASC tube jacket temperature (°C),LED temperature (°C),Box temperature (°C),Sample RH (%),Span deviation,Mass concentration (μg/m³),Mass concentration (μg/m³),Mass concentration (μg/m³)
DateTimeUTC,F1_M11,P_M11,Q1_M11,Q2_M11,T1_M11,T2_M11,T3_M11,T4_M11,T5_M11,U1_M11,ZSPAN_M11,X2_M11,X0_M11,X1_M11
2023-05-26 11:00:00,,0829.6,5.00,0.00,28.1,26.3,00.0,36.5,29.7,23.5,0000.0,0003.67,0007.53,0003.21
2023-05-26 11:01:00,,0829.6,5.00,0.00,28.1,26.3,00.0,36.5,29.7,23.5,0000.0,0003.68,0007.56,0003.21
2023-05-26 11:02:00,,0829.5,5.00,0.00,28.0,26.3,00.0,36.5,29.7,23.5,0000.0,0003.66,0007.48,0003.20
2023-05-26 11:03:00,,0829.5,5.01,0.00,28.0,26.3,00.0,36.4,29.7,23.4,0000.0,0003.63,0007.41,0003.19
2023-05-26 11:04:00,,0829.5,5.00,0.00,28.0,26.3,00.0,36.4,29.7,23.3,0000.0,0003.61,0007.27,0003.19
2023-05-26 11:05:00,,0829.5,5.00,0.00,28.0,26.3,00.0,36.4,29.7,23.4,0000.0,0003.59,0007.18,0003.18
2023-05-26 11:06:00,,0829.5,5.00,0.00,28.0,26.3,00.0,36.4,29.7,23.4,0000.0,0003.60,0007.30,0003.17
2023-05-26 11:07:00,,0829.6,4.99,0.00,28.0,26.3,00.0,36.4,29.6,23.5,0000.0,0003.64,0007.92,0003.17
2023-05-26 11:08:00,,0829.5,5.00,0.00,28.0,26.2,00.0,36.4,29.6,23.5,0000.0,0003.62,0007.18,0003.16
2023-05-26 11:09:00,,0829.6,5.01,0.00,28.0,26.2,00.0,36.4,29.6,23.4,0000.0,0003.61,0007.20,0003.14
2023-05-26 11:10:00,,0829.5,5.00,0.00,28.0,26.2,00.0,36.4,29.6,23.3,0000.0,0003.63,0007.48,0003.14
2023-05-26 11:11:00,,0829.5,5.00,0.00,28.0,26.2,00.0,36.4,29.6,23.1,0000.0,0003.61,0007.95,0003.13
2023-05-26 11:12:00,,0829.5,4.99,0.00,28.0,26.2,00.0,36.4,29.6,23.0,0000.0,0003.59,0007.91,0003.12
2023-05-26 11:13:00,,0829.5,5.00,0.00,28.0,26.2,00.0,36.4,29.6,23.1,0000.0,0003.58,0007.99,0003.12
2023-05-26 11:14:00,,0829.5,5.00,0.00,28.0,26.2,00.0,36.4,29.6,23.2,0000.0,0003.64,0008.20,0003.14
2023-05-26 11:15:00,,0829.5,5.00,0.00,28.0,26.2,00.0,36.4,29.6,23.2,0000.0,0003.64,0008.30,0003.13
2023-05-26 11:16:00,,0829.6,5.00,0.00,28.0,26.2,00.0,36.4,29.6,23.2,0000.0,0003.64,0008.63,0003.13
2023-05-26 11:17:00,,0829.6,5.00,0.00,28.0,26.2,00.0,36.4,29.6,23.2,0000.0,0003.63,0008.59,0003.14
2023-05-26 11:18:00,,0829.6,5.00,0.00,27.9,26.2,00.0,36.4,29.6,23.1,0000.0,0003.65,0008.18,0003.14
2023-05-26 11:19:00,,0829.6,5.01,0.00,27.9,26.2,00.0,36.3,29.6,23.0,0000.0,0003.64,0008.16,0003.15
2023-05-26 11:20:00,,0829.6,5.01,0.00,27.9,26.2,00.0,36.3,29.6,23.0,0000.0,0003.62,0008.07,0003.15
2023-05-26 11:21:00,,0829.6,4.99,0.00,27.9,26.2,00.0,36.3,29.6,22.9,0000.0,0003.59,0007.61,0003.15
2023-05-26 11:22:00,,0829.6,4.99,0.00,27.9,26.2,00.0,36.3,29.6,22.9,0000.0,0003.62,0007.12,0003.16
2023-05-26 11:23:00,,0829.7,5.00,0.00,27.9,26.2,00.0,36.3,29.6,22.9,0000.0,0003.62,0007.19,0003.17
2023-05-26 11:24:00,,0829.7,4.99,0.00,27.9,26.2,00.0,36.3,29.6,23.1,0000.0,0003.63,0007.13,0003.17
2023-05-26 11:25:00,,0829.7,5.00,0.00,27.9,26.2,00.0,36.3,29.6,22.9,0000.0,0003.61,0007.07,0003.16
2023-05-26 11:26:00,,0829.7,5.00,0.00,27.9,26.2,00.0,36.3,29.6,22.8,0000.0,0003.61,0007.00,0003.17
2023-05-26 11:27:00,,0829.6,5.00,0.00,27.9,26.2,00.0,36.3,29.6,22.8,0000.0,0003.62,0006.45,0003.18
2023-05-26 11:28:00,,0829.7,5.00,0.00,27.9,26.2,00.0,36.3,29.6,22.8,0000.0,0003.67,0007.05,0003.18
2023-05-26 11:29:00,,0829.7,4.99,0.00,27.9,26.2,00.0,36.3,29.6,22.8,0000.0,0003.66,0007.32,0003.17
2023-05-26 11:30:00,,0829.7,4.99,0.00,27.9,26.2,00.0,36.3,29.6,22.7,0000.0,0003.65,0007.27,0003.17
2023-05-26 11:31:00,,0829.7,5.00,0.00,27.9,26.2,00.0,36.3,29.6,22.7,0000.0,0003.68,0008.14,0003.17
2023-05-26 11:32:00,,0829.7,5.00,0.00,27.9,26.2,00.0,36.3,29.6,22.7,0000.0,0003.67,0008.28,0003.17
2023-05-26 11:33:00,,0829.7,5.00,0.00,27.9,26.2,00.0,36.3,29.6,22.6,0000.0,0003.65,0008.26,0003.16
2023-05-26 11:34:00,,0829.7,5.00,0.00,27.9,26.2,00.0,36.3,29.6,22.6,0000.0,0003.65,0008.28,0003.16
2023-05-26 11:35:00,,0829.6,5.00,0.00,27.9,26.2,00.0,36.3,29.6,22.8,0000.0,0003.66,0008.26,0003.18
2023-05-26 11:36:00,,0829.6,5.00,0.00,27.9,26.2,00.0,36.3,29.6,22.7,0000.0,0003.66,0008.20,0003.19
2023-05-26 11:37:00,,0829.6,5.00,0.00,27.9,26.2,00.0,36.3,29.5,22.6,0000.0,0003.67,0008.21,0003.19
2023-05-26 11:38:00,,0829.6,4.99,0.00,27.9,26.3,00.0,36.3,29.5,22.6,0000.0,0003.66,0008.20,0003.19
2023-05-26 11:39:00,,0829.7,5.00,0.00,27.9,26.3,00.0,36.3,29.6,22.6,0000.0,0003.62,0007.89,0003.19
2023-05-26 11:40:00,,0829.7,5.00,0.00,27.9,26.3,00.0,36.3,29.6,22.6,0000.0,0003.60,0007.56,0003.20
2023-05-26 11:41:00,,0829.7,5.00,0.00,27.9,26.3,00.0,36.3,29.6,22.5,0000.0,0003.61,0007.57,0003.21
2023-05-26 11:42:00,,0829.7,5.00,0.00,27.9,26.3,00.0,36.3,29.6,22.5,0000.0,0003.62,0006.59,0003.22
2023-05-26 11:43:00,,0829.7,5.00,0.00,27.9,26.3,00.0,36.3,29.6,22.5,0000.0,0003.69,0006.70,0003.23
2023-05-26 11:44:00,,0829.7,5.00,0.00,27.9,26.3,00.0,36.3,29.6,22.5,0000.0,0003.72,0007.49,0003.24
2023-05-26 11:45:00,,0829.7,4.99,0.00,27.9,26.3,00.0,36.3,29.5,22.5,0000.0,0003.71,0007.49,0003.23
2023-05-26 11:46:00,,0829.7,5.00,0.00,27.9,26.3,00.0,36.3,29.5,22.6,0000.0,0003.71,0007.50,0003.22
2023-05-26 11:47:00,,0829.7,5.00,0.00,27.9,26.3,00.0,36.3,29.5,22.6,0000.0,0003.70,0007.48,0003.21
2023-05-26 11:48:00,,0829.7,5.01,0.00,27.9,26.3,00.0,36.3,29.6,22.6,0000.0,0003.68,0007.41,0003.21
2023-05-26 11:49:00,,0829.6,5.01,0.00,27.9,26.3,00.0,36.3,29.6,22.6,0000.0,0003.70,0007.46,0003.21
2023-05-26 11:50:00,,0829.7,4.99,0.00,27.9,26.3,00.0,36.3,29.6,22.6,0000.0,0003.69,0007.53,0003.21
2023-05-26 11:51:00,,0829.7,4.99,0.00,27.9,26.3,00.0,36.3,29.6,22.6,0000.0,0003.71,0007.57,0003.21
2023-05-26 11:52:00,,0829.7,4.99,0.00,27.9,26.3,00.0,36.3,29.6,22.5,0000.0,0003.70,0007.68,0003.20
2023-05-26 11:53:00,,0829.7,5.00,0.00,27.9,26.3,00.0,36.3,29.6,22.5,0000.0,0003.69,0007.79,0003.19
2023-05-26 11:54:00,,0829.7,5.01,0.00,28.0,26.3,00.0,36.3,29.6,22.6,0000.0,0003.64,0007.58,0003.19
2023-05-26 11:55:00,,0829.8,5.00,0.00,28.0,26.3,00.0,36.3,29.6,22.7,0000.0,0003.62,0006.85,0003.19
2023-05-26 11:56:00,,0829.7,5.00,0.00,28.0,26.3,00.0,36.3,29.6,22.9,0000.0,0003.64,0006.76,0003.19
2023-05-26 11:57:00,,0829.8,5.00,0.00,28.0,26.4,00.0,36.3,29.6,23.0,0000.0,0003.64,0006.63,0003.19
2023-05-26 11:58:00,,0829.8,5.00,0.00,28.0,26.4,00.0,36.3,29.7,23.2,0000.0,0003.64,0006.73,0003.20
2023-05-26 11:59:00,,0829.8,5.00,0.00,28.0,26.4,00.0,36.3,29.7,23.1,0000.0,0003.66,0006.83,0003.20
